SAS4732 ENGM-EPWA

Flight info

Callsign SAS4732
Flight time 1h 37m
Altitude 37000
Route OKSAT L996 GETPA L727 NEGIL DCT LARMA DCT LASGU DCT SORIX
Aircraft A320/M-SDE3FGHIRWY/LB1

Departure

Time 2026-05-04 12:43
Airport Oslo-Gardermoen International Airport (ENGM)

Arrival

Time 2026-05-04 14:21
Airport Warsaw Chopin Airport (EPWA)
Time Latitude Longitude Altitude Speed Heading
2026-05-04 11:55 60.19388 11.10645 685 ft 0 kts 196°
2026-05-04 12:32 60.19397 11.10650 680 ft 4 kts 196°
2026-05-04 12:32 60.19448 11.10680 685 ft 4 kts 195°
2026-05-04 12:32 60.19469 11.10692 682 ft 4 kts 188°
2026-05-04 12:33 60.19492 11.10688 682 ft 4 kts 136°
2026-05-04 12:33 60.19499 11.10673 681 ft 4 kts 106°
2026-05-04 12:33 60.19491 11.10726 681 ft 4 kts 106°
2026-05-04 12:33 60.19489 11.10745 682 ft 0 kts 106°
2026-05-04 12:35 60.19488 11.10752 682 ft 3 kts 106°
2026-05-04 12:36 60.19479 11.10817 679 ft 6 kts 105°
2026-05-04 12:36 60.19465 11.10910 683 ft 8 kts 105°
2026-05-04 12:36 60.19449 11.11029 681 ft 10 kts 105°
2026-05-04 12:36 60.19429 11.11173 683 ft 12 kts 105°
2026-05-04 12:37 60.19460 11.11305 682 ft 13 kts 23°
2026-05-04 12:37 60.19521 11.11344 682 ft 15 kts 12°
2026-05-04 12:37 60.19624 11.11398 683 ft 16 kts 17°
2026-05-04 12:37 60.19717 11.11455 683 ft 14 kts 17°
2026-05-04 12:38 60.19853 11.11531 685 ft 16 kts 14°
2026-05-04 12:38 60.19966 11.11597 684 ft 18 kts 17°
2026-05-04 12:38 60.20079 11.11660 685 ft 16 kts 15°
2026-05-04 12:38 60.20145 11.11700 687 ft 12 kts 21°
2026-05-04 12:39 60.20168 11.11844 683 ft 14 kts 104°
2026-05-04 12:39 60.20146 11.11996 685 ft 6 kts 106°
2026-05-04 12:39 60.20145 11.12003 686 ft 0 kts 106°
2026-05-04 12:40 60.20122 11.12137 684 ft 20 kts 117°
2026-05-04 12:41 60.20003 11.12179 685 ft 15 kts 197°
2026-05-04 12:41 60.19996 11.12175 684 ft 0 kts 197°
2026-05-04 12:42 60.19947 11.12145 688 ft 33 kts 197°
2026-05-04 12:42 60.19492 11.11883 683 ft 100 kts 196°
2026-05-04 12:43 60.18648 11.11385 684 ft 150 kts 195°
2026-05-04 12:43 60.17571 11.10725 917 ft 167 kts 198°
2026-05-04 12:43 60.16465 11.10136 1554 ft 164 kts 200°
2026-05-04 12:43 60.15363 11.09513 2114 ft 169 kts 202°
2026-05-04 12:44 60.14133 11.08983 2381 ft 197 kts 186°
2026-05-04 12:44 60.12705 11.09789 2688 ft 234 kts 150°
2026-05-04 12:44 60.11444 11.12166 3104 ft 262 kts 136°
2026-05-04 12:44 60.10150 11.14917 3760 ft 277 kts 136°
2026-05-04 12:45 60.08704 11.17480 4636 ft 277 kts 153°
2026-05-04 12:45 60.07009 11.19343 5543 ft 279 kts 155°
2026-05-04 12:45 60.05283 11.21170 6411 ft 282 kts 156°
2026-05-04 12:45 60.03540 11.23001 7243 ft 285 kts 156°
2026-05-04 12:46 60.01771 11.24858 8067 ft 289 kts 156°
2026-05-04 12:46 59.99979 11.26743 8893 ft 293 kts 156°
2026-05-04 12:46 59.98185 11.28632 9701 ft 296 kts 156°
2026-05-04 12:46 59.96334 11.30575 10177 ft 311 kts 157°
2026-05-04 12:47 59.94346 11.32644 10400 ft 333 kts 157°
2026-05-04 12:47 59.92259 11.34816 10901 ft 342 kts 157°
2026-05-04 12:47 59.90133 11.37035 11550 ft 347 kts 158°
2026-05-04 12:47 59.87974 11.39293 12234 ft 351 kts 158°
2026-05-04 12:48 59.85828 11.41538 12897 ft 355 kts 159°
2026-05-04 12:48 59.83630 11.43833 13562 ft 359 kts 159°
2026-05-04 12:48 59.81405 11.46156 14179 ft 362 kts 160°
2026-05-04 12:48 59.79157 11.48502 14787 ft 366 kts 160°
2026-05-04 12:49 59.76895 11.50858 15397 ft 369 kts 160°
2026-05-04 12:49 59.74609 11.53229 16008 ft 372 kts 161°
2026-05-04 12:49 59.72302 11.55606 16613 ft 374 kts 161°
2026-05-04 12:49 59.69980 11.57994 17227 ft 377 kts 161°
2026-05-04 12:50 59.67638 11.60402 17842 ft 381 kts 162°
2026-05-04 12:50 59.65298 11.62808 18334 ft 384 kts 161°
2026-05-04 12:50 59.62903 11.65266 18819 ft 389 kts 161°
2026-05-04 12:50 59.60488 11.67740 19355 ft 393 kts 161°
2026-05-04 12:51 59.58044 11.70242 19915 ft 396 kts 161°
2026-05-04 12:51 59.55620 11.72718 20447 ft 398 kts 161°
2026-05-04 12:51 59.53144 11.75244 20955 ft 401 kts 161°
2026-05-04 12:51 59.50656 11.77781 21497 ft 403 kts 161°
2026-05-04 12:52 59.48146 11.80339 22039 ft 405 kts 161°
2026-05-04 12:52 59.45624 11.82902 22562 ft 408 kts 161°
2026-05-04 12:52 59.43118 11.85444 23072 ft 411 kts 161°
2026-05-04 12:52 59.40566 11.88024 23529 ft 414 kts 161°
2026-05-04 12:53 59.37988 11.90625 23928 ft 417 kts 161°
2026-05-04 12:53 59.35353 11.93029 24288 ft 414 kts 168°
2026-05-04 12:53 59.32606 11.94593 24579 ft 409 kts 178°
2026-05-04 12:53 59.29832 11.95246 24890 ft 403 kts 187°
2026-05-04 12:54 59.27037 11.95086 25241 ft 401 kts 192°
2026-05-04 12:54 59.24231 11.94753 25587 ft 405 kts 192°
2026-05-04 12:54 59.21397 11.94436 25934 ft 409 kts 192°
2026-05-04 12:54 59.18539 11.94126 26269 ft 413 kts 192°
2026-05-04 12:55 59.15688 11.93821 26607 ft 416 kts 191°
2026-05-04 12:55 59.12781 11.93511 26931 ft 419 kts 192°
2026-05-04 12:55 59.09853 11.93206 27258 ft 423 kts 191°
2026-05-04 12:55 59.06904 11.92898 27578 ft 426 kts 191°
2026-05-04 12:56 59.03924 11.92585 27824 ft 430 kts 191°
2026-05-04 12:56 59.00917 11.92261 28073 ft 435 kts 191°
2026-05-04 12:56 58.97869 11.91930 28373 ft 439 kts 191°
2026-05-04 12:56 58.94848 11.91606 28687 ft 442 kts 191°
2026-05-04 12:57 58.91761 11.91276 28992 ft 446 kts 191°
2026-05-04 12:57 58.88645 11.90938 29285 ft 449 kts 191°
2026-05-04 12:57 58.85511 11.90602 29591 ft 452 kts 191°
2026-05-04 12:57 58.82348 11.90288 29900 ft 457 kts 188°
2026-05-04 12:58 58.79131 11.90648 30166 ft 469 kts 179°
2026-05-04 12:58 58.75897 11.91549 30541 ft 468 kts 178°
2026-05-04 12:58 58.72681 11.92441 30975 ft 466 kts 178°
2026-05-04 12:58 58.69473 11.93324 31448 ft 464 kts 178°
2026-05-04 12:59 58.66287 11.94196 31936 ft 461 kts 178°
2026-05-04 12:59 58.63112 11.95060 32414 ft 459 kts 178°
2026-05-04 12:59 58.59978 11.96247 32892 ft 463 kts 169°
2026-05-04 12:59 58.56945 11.98443 33395 ft 468 kts 159°
2026-05-04 13:00 58.54140 12.01676 33856 ft 473 kts 148°
2026-05-04 13:00 58.51690 12.05790 34217 ft 478 kts 137°
2026-05-04 13:00 58.49477 12.10563 34548 ft 478 kts 135°
2026-05-04 13:00 58.47275 12.15341 34874 ft 477 kts 135°
2026-05-04 13:01 58.45071 12.20090 35187 ft 476 kts 135°
2026-05-04 13:01 58.42870 12.24806 35508 ft 473 kts 135°
2026-05-04 13:01 58.40711 12.29428 35842 ft 472 kts 135°
2026-05-04 13:01 58.38531 12.34095 36153 ft 470 kts 136°
2026-05-04 13:02 58.36355 12.38742 36451 ft 469 kts 136°
2026-05-04 13:02 58.34183 12.43366 36743 ft 469 kts 136°
2026-05-04 13:02 58.32003 12.48005 36796 ft 470 kts 136°
2026-05-04 13:03 58.27618 12.57303 36802 ft 472 kts 136°
2026-05-04 13:03 58.22906 12.65758 36803 ft 464 kts 148°
2026-05-04 13:04 58.17741 12.73131 36797 ft 465 kts 148°
2026-05-04 13:04 58.12574 12.80520 36804 ft 465 kts 148°
2026-05-04 13:05 58.07395 12.87901 36791 ft 465 kts 148°
2026-05-04 13:05 58.02240 12.95220 36801 ft 466 kts 148°
2026-05-04 13:06 57.97048 13.02550 36800 ft 466 kts 148°
2026-05-04 13:06 57.91847 13.09883 36799 ft 466 kts 148°
2026-05-04 13:07 57.86656 13.17182 36810 ft 466 kts 148°
2026-05-04 13:07 57.81486 13.24413 36808 ft 466 kts 148°
2026-05-04 13:08 57.76275 13.31658 36794 ft 466 kts 148°
2026-05-04 13:08 57.71059 13.38892 36807 ft 466 kts 148°
2026-05-04 13:09 57.65852 13.46098 36800 ft 465 kts 148°
2026-05-04 13:09 57.60644 13.53286 36824 ft 465 kts 148°
2026-05-04 13:10 57.55465 13.60394 36820 ft 464 kts 149°
2026-05-04 13:10 57.50256 13.67512 36830 ft 464 kts 149°
2026-05-04 13:11 57.45042 13.74623 36791 ft 464 kts 149°
2026-05-04 13:11 57.39868 13.81659 36808 ft 463 kts 149°
2026-05-04 13:12 57.34652 13.88718 36822 ft 463 kts 149°
2026-05-04 13:12 57.29479 13.95691 36827 ft 462 kts 149°
2026-05-04 13:13 57.24279 14.02685 36840 ft 461 kts 149°
2026-05-04 13:13 57.19087 14.09627 36832 ft 461 kts 149°
2026-05-04 13:14 57.13895 14.16551 36834 ft 460 kts 149°
2026-05-04 13:14 57.08725 14.23417 36814 ft 460 kts 149°
2026-05-04 13:15 57.03537 14.30296 36815 ft 459 kts 149°
2026-05-04 13:15 56.98341 14.37156 36840 ft 459 kts 149°
2026-05-04 13:16 56.93183 14.43935 36853 ft 459 kts 149°
2026-05-04 13:16 56.87987 14.50749 36854 ft 458 kts 150°
2026-05-04 13:17 56.82794 14.57518 36855 ft 458 kts 150°
2026-05-04 13:17 56.77621 14.64240 36827 ft 458 kts 150°
2026-05-04 13:18 56.72430 14.70979 36841 ft 458 kts 149°
2026-05-04 13:18 56.67240 14.77703 36849 ft 457 kts 150°
2026-05-04 13:19 56.62079 14.84362 36852 ft 456 kts 150°
2026-05-04 13:19 56.56899 14.91010 36858 ft 455 kts 150°
2026-05-04 13:20 56.51714 14.97638 36856 ft 455 kts 150°
2026-05-04 13:20 56.46559 15.04210 36838 ft 455 kts 150°
2026-05-04 13:21 56.41366 15.10804 36865 ft 454 kts 150°
2026-05-04 13:21 56.36220 15.17306 36876 ft 453 kts 151°
2026-05-04 13:22 56.31047 15.23832 36885 ft 452 kts 151°
2026-05-04 13:22 56.25888 15.30322 36889 ft 452 kts 151°
2026-05-04 13:23 56.20730 15.36791 36865 ft 451 kts 151°
2026-05-04 13:23 56.15571 15.43248 36873 ft 451 kts 151°
2026-05-04 13:24 56.10454 15.49633 36856 ft 451 kts 152°
2026-05-04 13:24 56.05298 15.56038 36870 ft 450 kts 152°
2026-05-04 13:25 55.98434 15.64508 36882 ft 449 kts 152°
2026-05-04 13:25 55.92446 15.71875 36888 ft 449 kts 152°
2026-05-04 13:26 55.88166 15.77146 36887 ft 449 kts 152°
2026-05-04 13:26 55.83012 15.83459 36886 ft 449 kts 152°
2026-05-04 13:27 55.77856 15.89745 36878 ft 449 kts 152°
2026-05-04 13:27 55.72691 15.96026 36870 ft 448 kts 152°
2026-05-04 13:28 55.67566 16.02246 36902 ft 448 kts 153°
2026-05-04 13:28 55.62416 16.08458 36909 ft 447 kts 153°
2026-05-04 13:29 55.57268 16.14644 36907 ft 447 kts 153°
2026-05-04 13:29 55.52148 16.20773 36913 ft 447 kts 153°
2026-05-04 13:30 55.46986 16.26947 36906 ft 446 kts 153°
2026-05-04 13:30 55.41849 16.33085 36924 ft 446 kts 153°
2026-05-04 13:31 55.36735 16.39173 36928 ft 445 kts 153°
2026-05-04 13:31 55.31588 16.45261 36927 ft 445 kts 153°
2026-05-04 13:32 55.26488 16.51304 36930 ft 446 kts 152°
2026-05-04 13:32 55.21522 16.57931 36930 ft 449 kts 148°
2026-05-04 13:33 55.16673 16.64895 36926 ft 450 kts 147°
2026-05-04 13:33 55.11840 16.71717 36913 ft 448 kts 148°
2026-05-04 13:34 55.06931 16.78424 36931 ft 447 kts 149°
2026-05-04 13:34 55.01999 16.85083 36937 ft 447 kts 149°
2026-05-04 13:35 54.94650 16.95041 36939 ft 447 kts 149°
2026-05-04 13:36 54.89741 17.01690 36951 ft 446 kts 149°
2026-05-04 13:36 54.84862 17.08265 36918 ft 446 kts 149°
2026-05-04 13:37 54.79937 17.14862 36932 ft 446 kts 149°
2026-05-04 13:37 54.75051 17.21418 36946 ft 446 kts 149°
2026-05-04 13:38 54.70132 17.28000 36950 ft 446 kts 149°
2026-05-04 13:38 54.65208 17.34555 36952 ft 446 kts 149°
2026-05-04 13:39 54.60270 17.41096 36956 ft 446 kts 149°
2026-05-04 13:39 54.55374 17.47581 36927 ft 446 kts 149°
2026-05-04 13:40 54.50436 17.54102 36908 ft 447 kts 149°
2026-05-04 13:40 54.45490 17.60602 36915 ft 447 kts 149°
2026-05-04 13:41 54.40533 17.67083 36925 ft 447 kts 149°
2026-05-04 13:41 54.35575 17.73559 36935 ft 448 kts 149°
2026-05-04 13:42 54.28163 17.83205 36929 ft 448 kts 149°
2026-05-04 13:42 54.23190 17.89661 36918 ft 448 kts 149°
2026-05-04 13:43 54.18210 17.96098 36921 ft 449 kts 149°
2026-05-04 13:43 54.13215 18.02519 36911 ft 449 kts 149°
2026-05-04 13:44 54.08257 18.08891 36916 ft 449 kts 149°
2026-05-04 13:44 54.03266 18.15292 36923 ft 449 kts 149°
2026-05-04 13:45 53.98262 18.21676 36909 ft 449 kts 149°
2026-05-04 13:45 53.93246 18.28046 36909 ft 450 kts 149°
2026-05-04 13:46 53.88226 18.34408 36912 ft 451 kts 149°
2026-05-04 13:46 53.83194 18.40771 36894 ft 451 kts 149°
2026-05-04 13:47 53.78159 18.47113 36921 ft 451 kts 149°
2026-05-04 13:47 53.73163 18.53396 36923 ft 451 kts 149°
2026-05-04 13:48 53.68125 18.59722 36908 ft 451 kts 149°
2026-05-04 13:48 53.63081 18.66032 36918 ft 451 kts 149°
2026-05-04 13:49 53.58024 18.72318 36919 ft 452 kts 149°
2026-05-04 13:49 53.52963 18.78594 36920 ft 452 kts 149°
2026-05-04 13:50 53.50428 18.81733 36669 ft 455 kts 149°
2026-05-04 13:50 53.47872 18.84894 36077 ft 455 kts 149°
2026-05-04 13:50 53.45322 18.88049 35606 ft 452 kts 149°
2026-05-04 13:50 53.42794 18.91174 35146 ft 450 kts 149°
2026-05-04 13:51 53.40278 18.94277 34670 ft 448 kts 149°
2026-05-04 13:51 53.37803 18.97326 34180 ft 447 kts 149°
2026-05-04 13:51 53.35298 19.00404 33662 ft 445 kts 149°
2026-05-04 13:51 53.32805 19.03458 33168 ft 442 kts 149°
2026-05-04 13:52 53.27865 19.09489 32201 ft 436 kts 149°
2026-05-04 13:52 53.25413 19.12483 31717 ft 434 kts 149°
2026-05-04 13:52 53.22982 19.15449 31248 ft 431 kts 149°
2026-05-04 13:53 53.20563 19.18398 30781 ft 429 kts 149°
2026-05-04 13:53 53.18202 19.21319 30334 ft 426 kts 148°
2026-05-04 13:53 53.15838 19.24300 29880 ft 423 kts 147°
2026-05-04 13:54 53.11194 19.30215 29015 ft 416 kts 147°
2026-05-04 13:54 53.08930 19.33087 28606 ft 412 kts 147°
2026-05-04 13:54 53.04391 19.38791 27812 ft 406 kts 147°
2026-05-04 13:55 53.02145 19.41602 27401 ft 403 kts 147°
2026-05-04 13:55 52.97673 19.47175 26600 ft 400 kts 147°
2026-05-04 13:55 52.95449 19.49944 26183 ft 399 kts 147°
2026-05-04 13:56 52.93230 19.52704 25771 ft 398 kts 147°
2026-05-04 13:56 52.91018 19.55449 25339 ft 397 kts 146°
2026-05-04 13:56 52.86596 19.60943 24472 ft 396 kts 146°
2026-05-04 13:57 52.84418 19.63647 24031 ft 396 kts 146°
2026-05-04 13:57 52.82213 19.66374 23581 ft 396 kts 146°
2026-05-04 13:58 52.75619 19.74499 22177 ft 390 kts 146°
2026-05-04 13:58 52.71294 19.79830 21283 ft 386 kts 144°
2026-05-04 13:58 52.69379 19.82934 20835 ft 387 kts 131°
2026-05-04 13:59 52.67897 19.86664 20352 ft 389 kts 122°
2026-05-04 13:59 52.66566 19.90529 19874 ft 387 kts 122°
2026-05-04 13:59 52.63926 19.98142 18932 ft 384 kts 123°
2026-05-04 14:00 52.62595 20.01960 18464 ft 382 kts 123°
2026-05-04 14:00 52.59959 20.09511 17478 ft 378 kts 123°
2026-05-04 14:00 52.58652 20.13250 17017 ft 375 kts 123°
2026-05-04 14:01 52.57355 20.16951 16545 ft 372 kts 123°
2026-05-04 14:01 52.56064 20.20622 16096 ft 369 kts 123°
2026-05-04 14:01 52.53517 20.27827 15199 ft 364 kts 124°
2026-05-04 14:02 52.52246 20.31413 14750 ft 362 kts 124°
2026-05-04 14:02 52.50981 20.34980 14293 ft 360 kts 124°
2026-05-04 14:02 52.49683 20.38482 13863 ft 358 kts 126°
2026-05-04 14:02 52.48352 20.41929 13387 ft 356 kts 127°
2026-05-04 14:03 52.47017 20.45327 12949 ft 352 kts 127°
2026-05-04 14:03 52.45693 20.48684 12520 ft 349 kts 127°
2026-05-04 14:03 52.44377 20.52026 12098 ft 346 kts 127°
2026-05-04 14:03 52.43079 20.55337 11668 ft 343 kts 126°
2026-05-04 14:04 52.40538 20.61842 10828 ft 338 kts 126°
2026-05-04 14:04 52.39273 20.65082 10421 ft 336 kts 126°
2026-05-04 14:04 52.38016 20.68302 10013 ft 334 kts 126°
2026-05-04 14:05 52.35553 20.74603 9488 ft 320 kts 126°
2026-05-04 14:05 52.34365 20.77637 9257 ft 313 kts 126°
2026-05-04 14:05 52.33219 20.80561 9040 ft 306 kts 126°
2026-05-04 14:06 52.32081 20.83454 8815 ft 299 kts 126°
2026-05-04 14:06 52.30963 20.86290 8606 ft 293 kts 126°
2026-05-04 14:06 52.29866 20.89076 8396 ft 288 kts 126°
2026-05-04 14:06 52.28788 20.91813 8183 ft 284 kts 126°
2026-05-04 14:07 52.27725 20.94509 7978 ft 279 kts 126°
2026-05-04 14:07 52.26692 20.97123 7776 ft 274 kts 126°
2026-05-04 14:07 52.25659 20.99721 7582 ft 271 kts 126°
2026-05-04 14:07 52.24640 21.02282 7385 ft 267 kts 126°
2026-05-04 14:08 52.23639 21.04801 7193 ft 263 kts 126°
2026-05-04 14:08 52.22723 21.07352 7002 ft 260 kts 117°
2026-05-04 14:08 52.21983 21.10014 6819 ft 256 kts 117°
2026-05-04 14:08 52.21248 21.12636 6648 ft 251 kts 118°
2026-05-04 14:09 52.19819 21.17690 6323 ft 241 kts 118°
2026-05-04 14:09 52.19123 21.20135 6197 ft 240 kts 118°
2026-05-04 14:10 52.17724 21.25071 5991 ft 239 kts 118°
2026-05-04 14:10 52.17025 21.27537 5882 ft 239 kts 117°
2026-05-04 14:10 52.16329 21.29989 5715 ft 238 kts 118°
2026-05-04 14:10 52.15633 21.32433 5549 ft 236 kts 117°
2026-05-04 14:11 52.14937 21.34872 5387 ft 237 kts 118°
2026-05-04 14:11 52.13557 21.39708 5068 ft 236 kts 118°
2026-05-04 14:11 52.12872 21.42114 4952 ft 230 kts 117°
2026-05-04 14:12 52.12210 21.44444 4879 ft 221 kts 118°
2026-05-04 14:12 52.11525 21.46658 4806 ft 216 kts 131°
2026-05-04 14:12 52.09097 21.48750 4673 ft 198 kts 185°
2026-05-04 14:13 52.07748 21.48425 4625 ft 194 kts 201°
2026-05-04 14:13 52.06535 21.47503 4582 ft 191 kts 217°
2026-05-04 14:13 52.05548 21.46090 4527 ft 188 kts 232°
2026-05-04 14:13 52.05050 21.44945 4493 ft 188 kts 242°
2026-05-04 14:14 52.04562 21.42971 4448 ft 190 kts 257°
2026-05-04 14:14 52.04694 21.38720 4340 ft 191 kts 288°
2026-05-04 14:14 52.05224 21.36749 4213 ft 192 kts 291°
2026-05-04 14:15 52.06347 21.32828 4043 ft 192 kts 292°
2026-05-04 14:15 52.07472 21.28906 3920 ft 190 kts 291°
2026-05-04 14:16 52.08588 21.25004 3811 ft 191 kts 291°
2026-05-04 14:16 52.09149 21.23033 3648 ft 191 kts 291°
2026-05-04 14:17 52.10252 21.19156 3343 ft 186 kts 291°
2026-05-04 14:17 52.10783 21.17296 3213 ft 178 kts 290°
2026-05-04 14:17 52.11775 21.13801 3006 ft 161 kts 291°
2026-05-04 14:18 52.12221 21.12225 3012 ft 145 kts 291°
2026-05-04 14:18 52.13045 21.09311 2521 ft 140 kts 291°
2026-05-04 14:19 52.13851 21.06460 1825 ft 136 kts 290°
2026-05-04 14:19 52.14242 21.05071 1554 ft 135 kts 290°
2026-05-04 14:19 52.14635 21.03674 1334 ft 136 kts 289°
2026-05-04 14:19 52.15040 21.02209 819 ft 147 kts 288°
2026-05-04 14:20 52.15415 21.00708 695 ft 143 kts 292°
2026-05-04 14:20 52.15831 20.99270 524 ft 139 kts 295°
2026-05-04 14:20 52.16264 20.97859 392 ft 137 kts 287°
2026-05-04 14:21 52.16813 20.95855 350 ft 25 kts 295°
2026-05-04 14:21 52.16883 20.95624 352 ft 18 kts 307°
2026-05-04 14:21 52.16996 20.95633 350 ft 19 kts 27°
2026-05-04 14:21 52.17120 20.95731 352 ft 13 kts 27°
2026-05-04 14:22 52.17125 20.95735 355 ft 0 kts 27°
2026-05-04 14:23 52.17128 20.95737 355 ft 2 kts 27°
2026-05-04 14:23 52.17149 20.95755 349 ft 5 kts 27°
2026-05-04 14:23 52.17189 20.95787 353 ft 8 kts 26°
2026-05-04 14:24 52.17248 20.95832 349 ft 11 kts 25°
2026-05-04 14:24 52.17330 20.95894 351 ft 16 kts 25°
2026-05-04 14:24 52.17451 20.95990 340 ft 21 kts 27°
2026-05-04 14:24 52.17564 20.96094 352 ft 16 kts 49°
2026-05-04 14:25 52.17548 20.96253 353 ft 17 kts 143°
2026-05-04 14:25 52.17406 20.96439 352 ft 9 kts 50°
2026-05-04 14:25 52.17444 20.96501 352 ft 9 kts 76°
2026-05-04 14:26 52.17428 20.96598 353 ft 10 kts 142°
2026-05-04 14:26 52.17357 20.96664 350 ft 13 kts 151°
2026-05-04 14:26 52.17272 20.96738 353 ft 11 kts 152°
2026-05-04 14:26 52.17232 20.96786 354 ft 2 kts 79°
2026-05-04 14:27 52.17248 20.96828 353 ft 6 kts 57°
2026-05-04 14:27 52.17270 20.96887 350 ft 4 kts 60°
2026-05-04 14:27 52.17274 20.96900 359 ft 0 kts 60°